BAW9925 EHAM-EGLL

Flight info

Callsign BAW9925
Flight time 0h 46m
Altitude 35000
Route VOLLA2Z IDRID L980 LOGAN LOGAN2H
Aircraft A20N/L-V/N

Departure

Time 2026-05-07 15:12
Airport Amsterdam Airport Schiphol (EHAM)

Arrival

Time 2026-05-07 15:59
Airport London Heathrow Airport (EGLL)
Time Latitude Longitude Altitude Speed Heading
2026-05-07 14:48 52.31185 4.75818 0 ft 0 kts 267°
2026-05-07 14:57 52.31187 4.75844 0 ft 2 kts 259°
2026-05-07 14:57 52.31192 4.75869 -1 ft 2 kts 240°
2026-05-07 14:58 52.31202 4.75890 0 ft 2 kts 214°
2026-05-07 14:58 52.31216 4.75905 1 ft 2 kts 243°
2026-05-07 14:58 52.31216 4.75930 1 ft 2 kts 312°
2026-05-07 14:58 52.31204 4.75943 0 ft 1 kts 353°
2026-05-07 14:59 52.31203 4.75944 0 ft 0 kts 357°
2026-05-07 15:02 52.31206 4.75944 1 ft 1 kts 357°
2026-05-07 15:03 52.31217 4.75943 1 ft 2 kts 357°
2026-05-07 15:03 52.31229 4.75942 1 ft 3 kts 357°
2026-05-07 15:03 52.31232 4.75941 2 ft 0 kts 358°
2026-05-07 15:03 52.31236 4.75941 2 ft 0 kts 358°
2026-05-07 15:04 52.31248 4.75940 2 ft 5 kts 357°
2026-05-07 15:04 52.31316 4.75936 5 ft 14 kts 358°
2026-05-07 15:04 52.31405 4.75928 9 ft 15 kts 355°
2026-05-07 15:05 52.31514 4.75892 16 ft 17 kts 321°
2026-05-07 15:05 52.31524 4.75657 11 ft 26 kts 262°
2026-05-07 15:05 52.31510 4.75404 11 ft 19 kts 267°
2026-05-07 15:05 52.31503 4.75155 10 ft 22 kts 266°
2026-05-07 15:06 52.31495 4.74949 13 ft 19 kts 265°
2026-05-07 15:06 52.31489 4.74820 16 ft 1 kts 267°
2026-05-07 15:06 52.31489 4.74786 14 ft 5 kts 270°
2026-05-07 15:06 52.31496 4.74711 15 ft 8 kts 290°
2026-05-07 15:07 52.31508 4.74686 18 ft 0 kts 313°
2026-05-07 15:08 52.31535 4.74661 17 ft 5 kts 345°
2026-05-07 15:08 52.31579 4.74658 18 ft 0 kts 360°
2026-05-07 15:08 52.31580 4.74658 18 ft 1 kts 360°
2026-05-07 15:09 52.31591 4.74658 18 ft 3 kts
2026-05-07 15:09 52.31617 4.74660 19 ft 5 kts
2026-05-07 15:09 52.31656 4.74687 21 ft 8 kts 37°
2026-05-07 15:09 52.31670 4.74776 18 ft 10 kts 83°
2026-05-07 15:10 52.31671 4.74802 18 ft 0 kts 85°
2026-05-07 15:11 52.31672 4.74808 18 ft 4 kts 85°
2026-05-07 15:11 52.31689 4.75251 15 ft 77 kts 86°
2026-05-07 15:11 52.31734 4.76471 16 ft 134 kts 86°
2026-05-07 15:11 52.31786 4.78174 211 ft 152 kts 84°
2026-05-07 15:12 52.31828 4.79932 552 ft 162 kts 84°
2026-05-07 15:12 52.31886 4.81722 1322 ft 155 kts 83°
2026-05-07 15:12 52.31965 4.83575 1810 ft 172 kts 84°
2026-05-07 15:12 52.31728 4.85581 2279 ft 197 kts 118°
2026-05-07 15:13 52.30797 4.87385 2938 ft 216 kts 133°
2026-05-07 15:13 52.29757 4.89161 3937 ft 225 kts 133°
2026-05-07 15:13 52.28634 4.91106 4702 ft 246 kts 133°
2026-05-07 15:13 52.27424 4.93249 5527 ft 262 kts 133°
2026-05-07 15:14 52.26096 4.95267 6687 ft 263 kts 149°
2026-05-07 15:14 52.24347 4.96228 7664 ft 270 kts 176°
2026-05-07 15:14 52.22495 4.95761 8757 ft 271 kts 204°
2026-05-07 15:14 52.20846 4.94227 9855 ft 276 kts 212°
2026-05-07 15:15 52.19188 4.92553 10774 ft 283 kts 212°
2026-05-07 15:15 52.17507 4.90849 11749 ft 288 kts 212°
2026-05-07 15:15 52.15800 4.89110 12727 ft 293 kts 212°
2026-05-07 15:15 52.14082 4.87369 13694 ft 298 kts 212°
2026-05-07 15:16 52.12308 4.85581 14593 ft 300 kts 212°
2026-05-07 15:16 52.10518 4.83786 15443 ft 305 kts 212°
2026-05-07 15:16 52.08705 4.81970 16318 ft 308 kts 212°
2026-05-07 15:16 52.06760 4.80419 17129 ft 314 kts 195°
2026-05-07 15:17 52.04569 4.80183 18017 ft 320 kts 174°
2026-05-07 15:17 52.02355 4.80880 18735 ft 327 kts 168°
2026-05-07 15:17 52.00175 4.81781 19505 ft 328 kts 168°
2026-05-07 15:17 51.97917 4.82152 20142 ft 317 kts 187°
2026-05-07 15:18 51.95843 4.81262 20037 ft 306 kts 208°
2026-05-07 15:18 51.94204 4.79121 19833 ft 305 kts 233°
2026-05-07 15:18 51.93269 4.76021 19820 ft 313 kts 257°
2026-05-07 15:18 51.92934 4.72488 20104 ft 327 kts 262°
2026-05-07 15:19 51.92634 4.68720 20332 ft 348 kts 262°
2026-05-07 15:19 51.92316 4.64710 20522 ft 367 kts 262°
2026-05-07 15:19 51.91988 4.60507 20709 ft 386 kts 264°
2026-05-07 15:19 51.91790 4.56113 21147 ft 395 kts 265°
2026-05-07 15:20 51.91580 4.51656 21871 ft 398 kts 265°
2026-05-07 15:20 51.91368 4.47159 22560 ft 401 kts 265°
2026-05-07 15:20 51.91160 4.42630 23224 ft 405 kts 265°
2026-05-07 15:20 51.90956 4.38115 23801 ft 409 kts 265°
2026-05-07 15:21 51.90749 4.33516 24018 ft 410 kts 265°
2026-05-07 15:21 51.90540 4.28909 24069 ft 409 kts 265°
2026-05-07 15:21 51.90335 4.24414 24071 ft 390 kts 265°
2026-05-07 15:21 51.90138 4.20120 24077 ft 377 kts 265°
2026-05-07 15:22 51.89939 4.15833 24080 ft 384 kts 265°
2026-05-07 15:22 51.89736 4.11505 24081 ft 384 kts 265°
2026-05-07 15:22 51.89532 4.07200 24074 ft 384 kts 265°
2026-05-07 15:22 51.89330 4.02937 24082 ft 384 kts 265°
2026-05-07 15:23 51.89123 3.98630 24085 ft 384 kts 265°
2026-05-07 15:23 51.88915 3.94320 24084 ft 384 kts 265°
2026-05-07 15:23 51.88706 3.90011 24077 ft 384 kts 265°
2026-05-07 15:23 51.88495 3.85704 24089 ft 382 kts 265°
2026-05-07 15:24 51.88284 3.81419 24091 ft 381 kts 265°
2026-05-07 15:24 51.88069 3.77107 24088 ft 383 kts 264°
2026-05-07 15:24 51.87852 3.72802 24094 ft 384 kts 264°
2026-05-07 15:24 51.87638 3.68549 24090 ft 381 kts 264°
2026-05-07 15:25 51.87420 3.64269 24091 ft 382 kts 264°
2026-05-07 15:25 51.87201 3.59989 24088 ft 382 kts 264°
2026-05-07 15:25 51.86665 3.49720 24085 ft 383 kts 264°
2026-05-07 15:25 51.86439 3.45419 24097 ft 383 kts 264°
2026-05-07 15:26 51.86213 3.41139 24093 ft 381 kts 264°
2026-05-07 15:26 51.85984 3.36836 24092 ft 384 kts 264°
2026-05-07 15:26 51.85756 3.32582 24090 ft 384 kts 264°
2026-05-07 15:26 51.85525 3.28290 24085 ft 383 kts 264°
2026-05-07 15:27 51.85291 3.23978 24085 ft 383 kts 264°
2026-05-07 15:27 51.85056 3.19688 24094 ft 383 kts 264°
2026-05-07 15:27 51.84820 3.15377 24085 ft 384 kts 264°
2026-05-07 15:27 51.84584 3.11081 24091 ft 384 kts 264°
2026-05-07 15:28 51.84351 3.06827 24092 ft 383 kts 264°
2026-05-07 15:28 51.84115 3.02529 24084 ft 383 kts 264°
2026-05-07 15:28 51.83879 2.98242 24082 ft 383 kts 264°
2026-05-07 15:28 51.83642 2.93945 24089 ft 383 kts 264°
2026-05-07 15:29 51.83323 2.89646 24086 ft 383 kts 257°
2026-05-07 15:29 51.82634 2.85474 24087 ft 383 kts 253°
2026-05-07 15:29 51.81845 2.81356 24080 ft 383 kts 255°
2026-05-07 15:29 51.81437 2.77100 24084 ft 384 kts 264°
2026-05-07 15:30 51.81194 2.72814 24087 ft 384 kts 264°
2026-05-07 15:30 51.80958 2.68574 24088 ft 383 kts 264°
2026-05-07 15:30 51.80723 2.64269 24088 ft 383 kts 264°
2026-05-07 15:30 51.80491 2.59972 24087 ft 383 kts 264°
2026-05-07 15:31 51.80259 2.55673 24086 ft 383 kts 264°
2026-05-07 15:31 51.80026 2.51382 24081 ft 383 kts 264°
2026-05-07 15:31 51.79871 2.48533 24083 ft 383 kts 264°
2026-05-07 15:31 51.79635 2.44232 24080 ft 383 kts 264°
2026-05-07 15:32 51.79320 2.38538 24085 ft 384 kts 264°
2026-05-07 15:32 51.79080 2.34236 24082 ft 384 kts 264°
2026-05-07 15:32 51.78920 2.31395 24083 ft 384 kts 264°
2026-05-07 15:32 51.78678 2.27095 24070 ft 384 kts 264°
2026-05-07 15:33 51.78434 2.22808 24084 ft 381 kts 264°
2026-05-07 15:33 51.78191 2.18546 24077 ft 382 kts 264°
2026-05-07 15:33 51.77944 2.14267 24084 ft 382 kts 264°
2026-05-07 15:33 51.77697 2.09990 24080 ft 382 kts 264°
2026-05-07 15:34 51.77447 2.05709 24080 ft 382 kts 264°
2026-05-07 15:34 51.77197 2.01442 24089 ft 382 kts 264°
2026-05-07 15:34 51.76949 1.97234 24088 ft 382 kts 264°
2026-05-07 15:34 51.76695 1.92964 24088 ft 382 kts 264°
2026-05-07 15:35 51.76440 1.88678 24081 ft 382 kts 264°
2026-05-07 15:35 51.76182 1.84399 24080 ft 382 kts 264°
2026-05-07 15:35 51.75924 1.80126 24083 ft 382 kts 264°
2026-05-07 15:35 51.75667 1.75909 24080 ft 382 kts 264°
2026-05-07 15:36 51.75406 1.71643 24075 ft 382 kts 263°
2026-05-07 15:36 51.75143 1.67363 24076 ft 382 kts 263°
2026-05-07 15:36 51.74878 1.63090 24086 ft 382 kts 263°
2026-05-07 15:36 51.74613 1.58829 24075 ft 382 kts 263°
2026-05-07 15:37 51.74341 1.54556 24076 ft 382 kts 263°
2026-05-07 15:37 51.74070 1.50327 24080 ft 382 kts 263°
2026-05-07 15:37 51.73794 1.46057 24072 ft 382 kts 263°
2026-05-07 15:37 51.73517 1.41787 24076 ft 381 kts 263°
2026-05-07 15:38 51.73242 1.37553 24078 ft 381 kts 263°
2026-05-07 15:38 51.72963 1.33302 24073 ft 381 kts 263°
2026-05-07 15:38 51.72683 1.29048 24076 ft 381 kts 263°
2026-05-07 15:38 51.72402 1.24790 24074 ft 381 kts 263°
2026-05-07 15:39 51.72120 1.20550 24004 ft 379 kts 263°
2026-05-07 15:39 51.71837 1.16329 23651 ft 377 kts 263°
2026-05-07 15:39 51.71559 1.12193 23086 ft 375 kts 263°
2026-05-07 15:39 51.71277 1.08019 22464 ft 372 kts 263°
2026-05-07 15:40 51.70996 1.03880 21835 ft 370 kts 263°
2026-05-07 15:40 51.70715 0.99774 21237 ft 367 kts 263°
2026-05-07 15:40 51.70435 0.95696 20656 ft 364 kts 263°
2026-05-07 15:40 51.70158 0.91664 20127 ft 360 kts 263°
2026-05-07 15:41 51.69879 0.87650 19520 ft 359 kts 262°
2026-05-07 15:41 51.69602 0.83678 19012 ft 355 kts 262°
2026-05-07 15:41 51.69326 0.79735 18509 ft 351 kts 262°
2026-05-07 15:41 51.69055 0.75879 17892 ft 350 kts 262°
2026-05-07 15:42 51.68779 0.71985 17306 ft 347 kts 262°
2026-05-07 15:42 51.68504 0.68116 16724 ft 345 kts 262°
2026-05-07 15:42 51.68230 0.64264 16153 ft 343 kts 262°
2026-05-07 15:42 51.67956 0.60439 15569 ft 342 kts 262°
2026-05-07 15:43 51.67684 0.56651 15082 ft 338 kts 262°
2026-05-07 15:43 51.67410 0.52875 14457 ft 339 kts 261°
2026-05-07 15:43 51.67135 0.49110 13917 ft 339 kts 262°
2026-05-07 15:43 51.66859 0.45347 13369 ft 336 kts 262°
2026-05-07 15:44 51.66590 0.41678 12874 ft 332 kts 262°
2026-05-07 15:44 51.66318 0.37991 12343 ft 330 kts 262°
2026-05-07 15:44 51.66047 0.34333 11838 ft 327 kts 262°
2026-05-07 15:44 51.65777 0.30708 11350 ft 324 kts 262°
2026-05-07 15:45 51.65512 0.27158 11051 ft 320 kts 262°
2026-05-07 15:45 51.65246 0.23625 10802 ft 314 kts 262°
2026-05-07 15:45 51.64991 0.20236 10644 ft 302 kts 262°
2026-05-07 15:45 51.64743 0.16957 10516 ft 289 kts 262°
2026-05-07 15:46 51.64320 0.10633 9806 ft 283 kts 264°
2026-05-07 15:46 51.64163 0.07498 9402 ft 281 kts 264°
2026-05-07 15:46 51.64007 0.04364 8979 ft 279 kts 264°
2026-05-07 15:47 51.63847 0.01251 8527 ft 279 kts 264°
2026-05-07 15:47 51.63684 -0.01812 8415 ft 269 kts 264°
2026-05-07 15:47 51.63515 -0.04906 8292 ft 281 kts 263°
2026-05-07 15:47 51.63344 -0.08010 8030 ft 275 kts 264°
2026-05-07 15:48 51.63178 -0.11007 7781 ft 269 kts 264°
2026-05-07 15:48 51.63013 -0.13963 7527 ft 262 kts 264°
2026-05-07 15:48 51.62851 -0.16849 7276 ft 256 kts 264°
2026-05-07 15:48 51.62692 -0.19680 7026 ft 251 kts 264°
2026-05-07 15:49 51.62535 -0.22446 6775 ft 246 kts 264°
2026-05-07 15:49 51.62380 -0.25167 6528 ft 241 kts 264°
2026-05-07 15:49 51.62228 -0.27834 6266 ft 238 kts 264°
2026-05-07 15:49 51.62077 -0.30476 6002 ft 235 kts 264°
2026-05-07 15:50 51.61930 -0.33034 5715 ft 229 kts 264°
2026-05-07 15:50 51.61785 -0.35562 5452 ft 223 kts 264°
2026-05-07 15:50 51.61643 -0.38019 5193 ft 218 kts 264°
2026-05-07 15:50 51.61504 -0.40417 5011 ft 209 kts 263°
2026-05-07 15:51 51.61374 -0.42668 4994 ft 195 kts 263°
2026-05-07 15:51 51.61244 -0.44882 5007 ft 199 kts 263°
2026-05-07 15:51 51.61114 -0.47096 4999 ft 198 kts 263°
2026-05-07 15:51 51.60984 -0.49309 4999 ft 198 kts 263°
2026-05-07 15:52 51.60853 -0.51519 5001 ft 198 kts 263°
2026-05-07 15:52 51.60722 -0.53728 5001 ft 198 kts 263°
2026-05-07 15:52 51.60593 -0.55901 5000 ft 197 kts 263°
2026-05-07 15:52 51.60468 -0.57997 4994 ft 177 kts 263°
2026-05-07 15:53 51.60357 -0.59884 4997 ft 167 kts 263°
2026-05-07 15:53 51.60245 -0.61756 4999 ft 168 kts 263°
2026-05-07 15:53 51.60132 -0.63606 4989 ft 165 kts 263°
2026-05-07 15:53 51.60021 -0.65429 4799 ft 164 kts 263°
2026-05-07 15:54 51.59776 -0.67205 4441 ft 164 kts 238°
2026-05-07 15:54 51.58918 -0.68288 4024 ft 163 kts 195°
2026-05-07 15:54 51.57841 -0.68111 3569 ft 165 kts 155°
2026-05-07 15:54 51.56802 -0.67181 3166 ft 164 kts 150°
2026-05-07 15:55 51.55836 -0.66269 3009 ft 166 kts 151°
2026-05-07 15:55 51.54840 -0.65353 3001 ft 164 kts 152°
2026-05-07 15:55 51.53841 -0.64466 2999 ft 164 kts 153°
2026-05-07 15:55 51.52831 -0.63590 2997 ft 164 kts 153°
2026-05-07 15:56 51.51833 -0.62735 3014 ft 161 kts 154°
2026-05-07 15:56 51.50919 -0.61953 2991 ft 144 kts 154°
2026-05-07 15:56 51.50038 -0.61205 2999 ft 145 kts 153°
2026-05-07 15:56 51.49153 -0.60455 2999 ft 144 kts 153°
2026-05-07 15:57 51.48383 -0.59437 3001 ft 145 kts 128°
2026-05-07 15:57 51.47961 -0.58025 3000 ft 137 kts 108°
2026-05-07 15:57 51.47795 -0.56475 2729 ft 150 kts 94°
2026-05-07 15:57 51.47772 -0.54728 1917 ft 167 kts 92°
2026-05-07 15:58 51.47757 -0.52812 1132 ft 172 kts 92°
2026-05-07 15:58 51.47742 -0.50968 545 ft 161 kts 90°
2026-05-07 15:58 51.47740 -0.49259 232 ft 142 kts 88°
2026-05-07 15:58 51.47748 -0.47777 91 ft 123 kts 89°
2026-05-07 15:59 51.47754 -0.46849 94 ft 43 kts 90°
2026-05-07 15:59 51.47758 -0.46376 94 ft 42 kts 89°
2026-05-07 15:59 51.47657 -0.46092 91 ft 24 kts 144°
2026-05-07 15:59 51.47611 -0.46065 89 ft 0 kts 178°
2026-05-07 16:00 51.47610 -0.46065 88 ft 1 kts 178°
2026-05-07 16:01 51.47568 -0.46077 93 ft 6 kts 195°
2026-05-07 16:01 51.47527 -0.46122 91 ft 9 kts 233°
2026-05-07 16:01 51.47516 -0.46245 89 ft 13 kts 268°
2026-05-07 16:01 51.47514 -0.46364 89 ft 8 kts 269°
2026-05-07 16:02 51.47513 -0.46470 91 ft 11 kts 270°
2026-05-07 16:02 51.47513 -0.46610 93 ft 15 kts 270°
2026-05-07 16:02 51.47508 -0.46729 91 ft 3 kts 255°
2026-05-07 16:02 51.47503 -0.46751 92 ft 5 kts 250°
2026-05-07 16:03 51.47494 -0.46841 91 ft 10 kts 276°
2026-05-07 16:03 51.47494 -0.46968 91 ft 12 kts 268°
2026-05-07 16:03 51.47493 -0.47125 91 ft 16 kts 270°
2026-05-07 16:03 51.47492 -0.47317 89 ft 15 kts 269°
2026-05-07 16:04 51.47492 -0.47379 89 ft 2 kts 270°
2026-05-07 16:04 51.47491 -0.47420 90 ft 5 kts 270°
2026-05-07 16:04 51.47491 -0.47495 91 ft 8 kts 270°
2026-05-07 16:04 51.47491 -0.47546 91 ft 1 kts 272°
2026-05-07 16:05 51.47491 -0.47582 91 ft 6 kts 270°
2026-05-07 16:05 51.47491 -0.47643 90 ft 5 kts 269°
2026-05-07 16:05 51.47490 -0.47727 89 ft 5 kts 269°
2026-05-07 16:05 51.47490 -0.47748 89 ft 3 kts 270°
2026-05-07 16:06 51.47490 -0.47815 89 ft 9 kts 270°
2026-05-07 16:06 51.47491 -0.47914 90 ft 11 kts 270°
2026-05-07 16:06 51.47492 -0.48044 91 ft 13 kts 271°
2026-05-07 16:06 51.47494 -0.48213 89 ft 16 kts 270°
2026-05-07 16:07 51.47490 -0.48388 89 ft 18 kts 265°
2026-05-07 16:07 51.47434 -0.48491 89 ft 7 kts 163°
2026-05-07 16:07 51.47369 -0.48480 87 ft 12 kts 181°
2026-05-07 16:07 51.47339 -0.48478 87 ft 0 kts 177°
2026-05-07 16:08 51.47338 -0.48478 87 ft 1 kts 177°
2026-05-07 16:08 51.47313 -0.48477 87 ft 6 kts 179°
2026-05-07 16:08 51.47260 -0.48475 87 ft 10 kts 179°
2026-05-07 16:08 51.47199 -0.48473 88 ft 5 kts 179°
2026-05-07 16:09 51.47148 -0.48472 88 ft 10 kts 179°
2026-05-07 16:09 51.47110 -0.48472 90 ft 1 kts 180°
2026-05-07 16:09 51.47098 -0.48472 91 ft 2 kts 180°
2026-05-07 16:09 51.47095 -0.48472 91 ft 0 kts 180°
2026-05-07 16:10 51.47083 -0.48472 91 ft 4 kts 180°
2026-05-07 16:10 51.47038 -0.48473 90 ft 3 kts 184°
2026-05-07 16:10 51.47037 -0.48474 90 ft 0 kts 193°
2026-05-07 16:10 51.47033 -0.48490 90 ft 5 kts 247°
2026-05-07 16:11 51.47040 -0.48527 89 ft 0 kts 306°
2026-05-07 16:11 51.47046 -0.48567 90 ft 5 kts 273°
2026-05-07 16:11 51.47047 -0.48586 91 ft 0 kts 273°